This is the latest recevied weather packets stored in our database for station/object WP3OF-1. If no packets are shown the sender has not sent any weather packets the latest 10 day(s).
| Time | Temp. | Humidity | Pressure | Rain* | Wind** | Luminosity | Snow |
|---|---|---|---|---|---|---|---|
| 1777665091 | 27.78° C | 76% | 1014.5 hPa | 0 mm | - | - | - |
| 1777664482 | 27.78° C | 75% | 1014.3 hPa | 0 mm | - | - | - |
| 1777664179 | 27.22° C | 76% | 1014.6 hPa | 0 mm | - | - | - |
| 1777663574 | 27.78° C | 76% | 1014.5 hPa | 0 mm | - | - | - |
| 1777663272 | 27.78° C | 75% | 1014.5 hPa | 0 mm | - | - | - |
| 1777662969 | 27.78° C | 76% | 1014.3 hPa | 0 mm | - | - | - |
| 1777662362 | 28.33° C | 77% | 1014.4 hPa | 0 mm | - | - | - |
| 1777661754 | 28.33° C | 73% | 1014.3 hPa | 0 mm | - | - | - |
| 1777661450 | 27.78° C | 74% | 1014.3 hPa | 0 mm | - | - | - |
| 1777661146 | 27.78° C | 77% | 1014.2 hPa | 0 mm | - | - | - |
| 1777660543 | 27.78° C | 77% | 1014.4 hPa | 0 mm | - | - | - |
| 1777659633 | 27.78° C | 76% | 1014.5 hPa | 0 mm | - | - | - |
| 1777659331 | 28.33° C | 73% | 1014.6 hPa | 0 mm | - | - | - |
| 1777659027 | 28.33° C | 73% | 1014.5 hPa | 0 mm | - | - | - |
| 1777655994 | 28.33° C | 77% | 1015.3 hPa | 0 mm | - | - | - |
| 1777655690 | 27.78° C | 77% | 1015.4 hPa | 0 mm | - | - | - |
| 1777654782 | 27.78° C | 77% | 1015.7 hPa | 0 mm | - | - | - |
| 1777653571 | 28.33° C | 76% | 1015.8 hPa | 0 mm | - | - | - |
| 1777652660 | 27.78° C | 76% | 1015.9 hPa | 0 mm | - | - | - |
| 1777652054 | 27.78° C | 76% | 1015.8 hPa | 0 mm | - | - | - |
| 1777651751 | 28.33° C | 75% | 1016.3 hPa | 0 mm | - | - | - |
| 1777651447 | 28.33° C | 74% | 1016.4 hPa | 0 mm | - | - | - |
| 1777649933 | 28.33° C | 77% | 1016.2 hPa | 0 mm | - | - | - |
| 1777649630 | 28.33° C | 78% | 1015.9 hPa | 0 mm | - | - | - |
| 1777649325 | 27.78° C | 79% | 1016.2 hPa | 0 mm | - | - | - |
* Rain latest hour (hover to see other rain measurements)
** Current wind speed in m/s (hover to see current wind gust speed)